STARLINK-36401, 67696

Orbit data source: Space-Track

STARLINK-36401, 67696 is a payload satellite owned by SpaceX/Seattle (US) in SSO that was launched on Sat, 07 Feb 2026 UTC via an FALCON 9 launch vehicle from the Air Force Western Test Range (AFWTR). Payload-class satellites include a variety of spacecraft equipped with specific instruments for various scientific and technological missions. These include communications satellites like Starlink; space stations such as the ISS; scientific satellites like the Hubble; Earth observation satellites from companies like Planet Labs, Umbra, and HawkEye 360; GPS; miniature CubeSats for education and research; and military/defense satellites.

Loading next visibility...
Identifier
67696, 2026-025D
Orbit
SSO
Country
Flag of USUS
Related business
Manufacturer
SpaceX/Seattle
Mission
Operational Commercial Communications
Bus & Motor
STARLINK V2MO, Unknown motor
Mass
575 kg wet, ~530 kg dry
Launch date (UTC)
2026-02-07 (4 months ago)
Launch vehicle
FALCON 9
Launch site
Air Force Western Test Range (AFWTR)
Object type
Payload
Rocket body
Debris
Shape & HBR
Box + 2 Pan, 17.7 m
Radar Cross Section
36.964 m², Large (>1 m²)

Expand to show TLE details & history
Last TLE update: 17 hours ago

TLE from 17 hours ago
0 STARLINK-36401
1 67696U 26025D   26171.26632419  .00032363  00000-0  99987-3 0  9991
2 67696  97.2834 282.5241 0001058  84.8304 275.3059 15.33464671 21738
Epoch: 2026-06-20T06:23Z
TLE epoch observation values (Epoch: 2026-06-20T06:23:30.410Z)
Latitude
-0.00004°
Longitude
-81.83602°
Altitude
468.53 km
Speed
7.632 km/s
True Right ascension
18h 50m 05s
True Declination
0° 00' 00"
Sunlit
Object was in full shadow at epoch
Visualization orbit readout
Latitude
Unknown
Longitude
Unknown
Altitude
Unknown
Speed
Unknown
Apparent Right ascension
Unknown
Apparent Declination
Unknown
Sunlit
N/A
Visualization observer readout
Local Sidereal Time
10:18:37
Azimuth
Unknown
Elevation
Unknown
Doppler factor
Unknown
Orbital elements
Apogee altitude
463.151 km
Perigee altitude
461.704 km
Semi-major axis
6,840.564 km
Eccentricity
0.00011
Inclination
97.2834°
RAAN
282.5241°
Arg. of periapsis
84.8304°
True anomaly
275.29383°
Mean anomaly
275.3059°
Eccentric anomaly
275.29986°
Mean motion
3.83624 °/min
Orbital period
93.84 mins
BSTAR
0.00099987
Loading maneuver chart data...
Computing Atmospheric mass density...
Loading historical data...
Loading historical data...
Loading historical data...
Loading historical data...
Loading historical data...
Loading historical data...
Loading historical data...

Documentation

Showing up to 5 results
|